TimeCST,TemperatureF,Dew PointF,Humidity,Sea Level PressureIn,VisibilityMPH,Wind Direction,Wind SpeedMPH,Gust SpeedMPH,PrecipitationIn,Events,Conditions,WindDirDegrees,DateUTC
12:54 AM,27.0,25.0,92,30.33,10.0,Calm,Calm,-,N/A,,Clear,0,2013-01-17 06:54:00
1:54 AM,21.9,21.0,96,30.37,10.0,North,3.5,-,N/A,,Clear,10,2013-01-17 07:54:00
2:54 AM,26.1,25.0,96,30.37,9.0,NNW,3.5,-,N/A,,Clear,340,2013-01-17 08:54:00
3:54 AM,26.1,23.0,88,30.39,8.0,Calm,Calm,-,N/A,,Clear,0,2013-01-17 09:54:00
4:08 AM,24.8,21.2,86,30.37,6.0,Calm,Calm,-,N/A,,Scattered Clouds,0,2013-01-17 10:08:00
4:16 AM,21.2,19.4,93,30.37,3.0,Calm,Calm,-,N/A,,Mostly Cloudy,0,2013-01-17 10:16:00
4:54 AM,23.0,21.9,96,30.41,4.0,Calm,Calm,-,N/A,,Overcast,0,2013-01-17 10:54:00
5:04 AM,24.8,21.2,86,30.38,5.0,Calm,Calm,-,N/A,,Overcast,0,2013-01-17 11:04:00
5:26 AM,21.2,21.2,100,30.38,7.0,Calm,Calm,-,N/A,,Scattered Clouds,0,2013-01-17 11:26:00
5:34 AM,21.2,21.2,100,30.37,2.0,Calm,Calm,-,N/A,,Partly Cloudy,0,2013-01-17 11:34:00
5:54 AM,19.0,18.0,96,30.42,2.0,Calm,Calm,-,N/A,,Clear,0,2013-01-17 11:54:00
6:11 AM,19.4,17.6,93,30.39,0.5,Calm,Calm,-,N/A,Fog,Light Freezing Fog,0,2013-01-17 12:11:00
6:15 AM,19.4,17.6,93,30.39,0.2,Calm,Calm,-,N/A,Fog,Light Freezing Fog,0,2013-01-17 12:15:00
6:54 AM,23.0,21.9,96,30.43,0.2,Calm,Calm,-,N/A,Fog,Light Freezing Fog,0,2013-01-17 12:54:00
7:54 AM,24.1,24.1,100,30.44,0.2,Calm,Calm,-,N/A,Fog,Light Freezing Fog,0,2013-01-17 13:54:00
8:10 AM,24.8,24.8,100,30.41,0.2,Calm,Calm,-,N/A,Fog,Light Freezing Fog,0,2013-01-17 14:10:00
8:54 AM,25.0,24.1,96,30.48,0.2,Calm,Calm,-,N/A,Fog,Light Freezing Fog,0,2013-01-17 14:54:00
9:39 AM,26.6,24.8,93,30.47,0.2,South,4.6,-,N/A,Fog,Light Freezing Fog,180,2013-01-17 15:39:00
9:50 AM,26.6,24.8,93,30.47,0.2,South,5.8,-,N/A,Fog,Light Freezing Fog,170,2013-01-17 15:50:00
9:54 AM,27.0,25.0,92,30.51,0.2,South,4.6,-,N/A,Fog,Light Freezing Fog,170,2013-01-17 15:54:00
10:17 AM,28.4,26.6,93,30.48,0.2,SSE,3.5,-,N/A,Fog,Light Freezing Fog,150,2013-01-17 16:17:00
10:54 AM,28.9,28.0,96,30.51,0.2,South,5.8,-,N/A,Fog,Light Freezing Fog,170,2013-01-17 16:54:00
11:07 AM,30.2,28.4,93,30.46,0.5,Calm,Calm,-,N/A,Fog,Light Freezing Fog,0,2013-01-17 17:07:00
11:16 AM,30.2,28.4,93,30.46,2.0,ESE,3.5,-,N/A,,Overcast,120,2013-01-17 17:16:00
11:25 AM,30.2,30.2,100,30.46,1.0,Calm,Calm,-,N/A,,Overcast,0,2013-01-17 17:25:00
11:34 AM,30.2,30.2,100,30.46,3.0,Calm,Calm,-,N/A,,Mostly Cloudy,0,2013-01-17 17:34:00
11:39 AM,30.2,28.4,93,30.46,4.0,Calm,Calm,-,N/A,,Mostly Cloudy,0,2013-01-17 17:39:00
11:49 AM,32.0,30.2,93,30.45,4.0,Calm,Calm,-,N/A,,Scattered Clouds,0,2013-01-17 17:49:00
11:54 AM,32.0,30.9,96,30.48,5.0,SSE,3.5,-,N/A,,Partly Cloudy,160,2013-01-17 17:54:00
12:54 PM,39.9,30.0,68,30.45,10.0,Calm,Calm,-,N/A,,Clear,0,2013-01-17 18:54:00
1:54 PM,44.1,30.0,58,30.44,10.0,NNW,3.5,-,N/A,,Clear,340,2013-01-17 19:54:00
2:54 PM,44.1,30.0,58,30.43,10.0,Calm,Calm,-,N/A,,Clear,0,2013-01-17 20:54:00
3:54 PM,45.0,30.0,56,30.42,10.0,WSW,3.5,-,N/A,,Clear,250,2013-01-17 21:54:00
4:54 PM,45.0,30.0,56,30.42,10.0,Calm,Calm,-,N/A,,Clear,0,2013-01-17 22:54:00
5:54 PM,33.1,28.0,82,30.44,10.0,ENE,6.9,-,N/A,,Clear,70,2013-01-17 23:54:00
6:54 PM,33.1,28.9,85,30.43,8.0,Calm,Calm,-,N/A,,Clear,0,2013-01-18 00:54:00
7:54 PM,30.0,27.0,88,30.42,8.0,Calm,Calm,-,N/A,,Clear,0,2013-01-18 01:54:00
8:54 PM,30.0,27.0,88,30.40,7.0,South,5.8,-,N/A,,Clear,190,2013-01-18 02:54:00
9:54 PM,30.0,28.9,96,30.38,5.0,South,3.5,-,N/A,,Clear,170,2013-01-18 03:54:00
10:54 PM,30.9,28.0,89,30.36,6.0,SSE,3.5,-,N/A,,Clear,150,2013-01-18 04:54:00
11:54 PM,30.0,28.0,92,30.34,6.0,Calm,Calm,-,N/A,,Clear,0,2013-01-18 05:54:00